COSMOS 794

Satellite information

Favourite Embed

Satellite Type and Status

PAYLOADIN ORBIT

Key statistics

Satellite COSMOS 794 at a glance.

Uptime

17996

Days in orbit

Revolutions

≈ 12.5

Per day

Orbit

LEO

Low Earth Orbit

Inclination

74.1

Latest

Satellite identification and parameters

Extended collection of information and parameters for COSMOS 794.

Object identification

Identified? True

Debris? False

Object name: COSMOS 794

International designator: 1976-008D

Object number (NORAD): 8610

Object ID (CCSDS): 8610

Country: COMMONWEALTH OF INDEPENDENT STATES (CIS)

Current information (Y/N): Y

RCS size: MEDIUM

Orbital parameters

Period: 115.371 minutes

Inclination: 74.0539 deg

SMA: 7850.378 km

Apoapsis: 1493.113 km

Periapsis: 1451.372 km

RAAN: 267.332 deg

Eccentricy: 0.0026585

Argument of periapsis: 151.178 deg

Mean anomaly: 323.8104 deg

Mean motion: 12.48150483 rev/day

Mean motion (dot): 0.0000001 rev/day2

B* drag term: 0.00017424 1/REarth

Two-line elements (TLE)

Creation date: May 5, 2025, 2:11 a.m.

Reference frame: TEME

Reference center: EARTH

Epoch: May 4, 2025, 8:47 p.m. UTC

TLE line 0: 0 COSMOS 794

TLE line 1: 1 08610U 76008D 25124.86655108 .00000010 00000-0 17424-3 0 9991

TLE line 2: 2 08610 74.0539 267.3320 0026585 151.1780 323.8104 12.48150483244745

Live tracking on map

Real-time ground track for satellite COSMOS 794.

In-orbit conjunctions

A list of the most updated potential collisions computed for object COSMOS 794.

Target Orbit TCA Probability of collision Miss distance Type
DELTA 1 DEB MEO 2024-05-30 08:38:33 0.0001400438 378.0 (m) DEBRIS

Associated space launch

Military communications satellites

COSMOS 794 was lifted into orbit during the mission ‘Kosmos-3M | Strela-1M 105-112’, on board a Kosmos-3M space rocket.

The launch took place on Jan. 28, 1976, 10:39 a.m. from 132/1 (132L).

For more information about the launch, click the button.

Launch to space Kosmos-3M | Strela-1M 105-112
Kosmos-3M | Strela-1M 105-112

Agency: N/A

Status: Launch Successful

Launch date: Jan. 28, 1976, 10:39 a.m. UTC

Rocket: Kosmos-3M

Launch pad: 132/1 (132L)

Location: Plesetsk Cosmodrome, Russian Federation

...

Latest news about this satellite

There are no fresh news available about this satellite. Check back as we update our databases every day.


Newsletter sign-up

Weekly statistics, charts and insights to help you stay on top of the space industry.